Regional Weather Roundup
Issued by NWS Goodland, KS

Home | Current Version | Previous Version | Text Only | Print | Product List | Glossary Off
Versions: 1 2 3 4 5 6 7 8 9 10 11 12 13 14 15 16 17 18 19 20 21 22 23 24 25 26 27 28 29 30 31 32 33 34 35 36 37 38 39 40 41 42 43 44 45 46 47 48 49 50

000
ASUS43 KGLD 180159
RWRGLD

GOODLAND FORECAST AREA HOURLY WEATHER ROUNDUP
NATIONAL WEATHER SERVICE GOODLAND KS
700 PM MST SUN DEC 17 2017

...OFFICIAL OBSERVATIONS...

CITY           SKY/WX    TMP DP  RH WIND       PRES   REMARKS
GOODLAND KS    CLOUDY    27  21  78 SW7       29.98R
HILL CITY KS   CLOUDY    26  23  88 W3        30.03R
IMPERIAL NEB   CLEAR     27  23  85 SW9       29.96R
MCCOOK NEB     CLOUDY    28  25  88 SW8       29.99R
AKRON CO       CLEAR     28  23  81 SW9       29.94R
BURLINGTON CO  CLOUDY    24  20  84 SW7       29.98R
LIMON CO       CLOUDY    23  20  88 S6        29.95R
$$

...UNOFFICIAL OBSERVATIONS...

CITY           SKY/WX    TMP DP  RH WIND       PRES   REMARKS
LENORA KS        N/A     32  32 100 CALM        N/A
NORTON KS      CLEAR     28  21  74 SW6       30.00
SHARON SPRINGS   N/A     26  21  82 CALM        N/A
TRENTON NEB      N/A     29  32 100 CALM        N/A
KIT CARSON CO    N/A     25  19  77 CALM        N/A
YUMA CO        FAIR      23  19  86 SW6       29.96R
$$




USA.gov is the U.S. government's official web portal to all federal, state and local government web resources and services.